STARLINK-34693

Last updated on Sat Aug 16 2025 00:02:05 GMT+0000 (Coordinated Universal Time)

1 64793U 25150D 25227.50988010 -.00191314 00000+0 -32464-2 0 9992 2 64793 70.0016 315.5164 0002600 253.2486 106.8415 15.51967066 5105

Satellite not in orbit

STARLINK-34693